Time,TemperatureF,DewpointF,PressureIn,WindDirection,WindDirectionDegrees,WindSpeedMPH,WindSpeedGustMPH,Humidity,HourlyPrecipIn,Conditions,Clouds,dailyrainin,SoftwareType,DateUTC
2013-07-23 00:02:00,61.2,37.9,29.81,NNW,338,0.0,0.0,42,0.00,,---,0.00,VWS V13.01,2013-07-23 05:02:00,
2013-07-23 00:07:00,60.8,38.2,29.81,NNW,338,0.0,0.0,43,0.00,,---,0.00,VWS V13.01,2013-07-23 05:07:00,
2013-07-23 00:12:00,60.8,38.8,29.81,NNW,338,0.0,0.0,44,0.00,,---,0.00,VWS V13.01,2013-07-23 05:12:00,
2013-07-23 00:17:00,60.6,38.6,29.81,NNW,338,0.0,0.0,44,0.00,,---,0.00,VWS V13.01,2013-07-23 05:17:00,
2013-07-23 00:22:00,60.4,39.0,29.81,NNW,338,0.0,0.0,45,0.00,,---,0.00,VWS V13.01,2013-07-23 05:22:00,
2013-07-23 00:27:00,60.3,38.8,29.81,NNW,338,0.0,0.0,45,0.00,,---,0.00,VWS V13.01,2013-07-23 05:27:00,
2013-07-23 00:32:00,60.1,38.7,29.81,NNW,338,0.0,0.0,45,0.00,,---,0.00,VWS V13.01,2013-07-23 05:32:00,
2013-07-23 00:37:00,59.9,39.1,29.81,NNW,338,0.0,0.0,46,0.00,,---,0.00,VWS V13.01,2013-07-23 05:37:00,
2013-07-23 00:42:00,59.7,38.9,29.81,NNW,338,0.0,0.0,46,0.00,,---,0.00,VWS V13.01,2013-07-23 05:42:00,
2013-07-23 00:47:00,59.7,39.5,29.81,NNW,338,0.0,0.0,47,0.00,,---,0.00,VWS V13.01,2013-07-23 05:47:00,
2013-07-23 00:52:00,59.5,39.3,29.81,NNW,340,0.0,0.0,47,0.00,,---,0.00,VWS V13.01,2013-07-23 05:52:00,
2013-07-23 00:57:00,59.5,39.3,29.84,NNW,340,0.0,0.0,47,0.00,,---,0.00,VWS V13.01,2013-07-23 05:57:00,
2013-07-23 01:02:00,59.5,39.3,29.84,NNW,340,0.0,0.0,47,0.00,,---,0.00,VWS V13.01,2013-07-23 06:02:00,
2013-07-23 01:07:00,59.4,39.7,29.84,NNW,340,0.0,0.0,48,0.00,,---,0.00,VWS V13.01,2013-07-23 06:07:00,
2013-07-23 01:12:00,59.4,39.7,29.84,NNW,340,0.0,0.0,48,0.00,,---,0.00,VWS V13.01,2013-07-23 06:12:00,
2013-07-23 01:17:00,59.2,39.5,29.84,NNW,340,0.0,0.0,48,0.00,,---,0.00,VWS V13.01,2013-07-23 06:17:00,
2013-07-23 01:22:00,59.0,39.4,29.84,NNW,340,0.0,0.0,48,0.00,,---,0.00,VWS V13.01,2013-07-23 06:22:00,
2013-07-23 01:27:00,58.8,39.7,29.84,NNW,340,0.0,0.0,49,0.00,,---,0.00,VWS V13.01,2013-07-23 06:27:00,
2013-07-23 01:32:00,58.8,40.2,29.84,NNW,340,0.0,0.0,50,0.00,,---,0.00,VWS V13.01,2013-07-23 06:32:00,
2013-07-23 01:37:00,58.6,40.1,29.84,NNW,340,0.0,0.0,50,0.00,,---,0.00,VWS V13.01,2013-07-23 06:37:00,
2013-07-23 01:42:00,58.8,40.8,29.84,NNW,340,0.0,0.0,51,0.00,,---,0.00,VWS V13.01,2013-07-23 06:42:00,
2013-07-23 01:47:00,58.8,40.8,29.84,NNW,340,0.0,0.0,51,0.00,,---,0.00,VWS V13.01,2013-07-23 06:47:00,
2013-07-23 01:52:00,58.8,40.8,29.84,WNW,301,0.0,0.0,51,0.00,,---,0.00,VWS V13.01,2013-07-23 06:52:00,
2013-07-23 01:57:00,58.6,40.6,29.84,North,350,0.0,0.0,51,0.00,,---,0.00,VWS V13.01,2013-07-23 06:57:00,
2013-07-23 02:02:00,58.6,40.6,29.84,North,350,0.0,0.0,51,0.00,,---,0.00,VWS V13.01,2013-07-23 07:02:00,
2013-07-23 02:07:00,58.6,40.6,29.84,North,350,0.0,0.0,51,0.00,,---,0.00,VWS V13.01,2013-07-23 07:07:00,
2013-07-23 02:13:00,58.5,40.9,29.84,North,350,0.0,0.0,52,0.00,,---,0.00,VWS V13.01,2013-07-23 07:13:00,
2013-07-23 02:18:00,58.3,40.8,29.84,North,350,0.0,0.0,52,0.00,,---,0.00,VWS V13.01,2013-07-23 07:18:00,
2013-07-23 02:23:00,58.1,40.6,29.84,North,350,0.0,0.0,52,0.00,,---,0.00,VWS V13.01,2013-07-23 07:23:00,
2013-07-23 02:28:00,58.1,40.6,29.84,North,350,0.0,0.0,52,0.00,,---,0.00,VWS V13.01,2013-07-23 07:28:00,
2013-07-23 02:32:00,57.9,40.9,29.84,North,350,0.0,0.0,53,0.00,,---,0.00,VWS V13.01,2013-07-23 07:32:00,
2013-07-23 02:38:00,57.7,40.7,29.84,North,350,0.0,0.0,53,0.00,,---,0.00,VWS V13.01,2013-07-23 07:38:00,
2013-07-23 02:43:00,57.7,40.7,29.84,North,3,0.0,0.0,53,0.00,,---,0.00,VWS V13.01,2013-07-23 07:43:00,
2013-07-23 02:48:00,57.6,40.6,29.84,NNE,17,0.0,0.0,53,0.00,,---,0.00,VWS V13.01,2013-07-23 07:48:00,
2013-07-23 02:53:00,57.6,41.1,29.84,North,357,0.0,0.0,54,0.00,,---,0.00,VWS V13.01,2013-07-23 07:53:00,
2013-07-23 02:58:00,57.2,41.2,29.87,North,357,0.0,0.0,55,0.00,,---,0.00,VWS V13.01,2013-07-23 07:58:00,
2013-07-23 03:03:00,57.2,41.2,29.87,NNW,339,2.7,2.7,55,0.00,,---,0.00,VWS V13.01,2013-07-23 08:03:00,
2013-07-23 03:08:00,57.2,41.7,29.87,NNW,344,0.0,0.0,56,0.00,,---,0.00,VWS V13.01,2013-07-23 08:08:00,
2013-07-23 03:13:00,57.0,41.5,29.87,North,4,2.7,3.1,56,0.00,,---,0.00,VWS V13.01,2013-07-23 08:13:00,
2013-07-23 03:18:00,57.0,41.5,29.87,NW,325,3.6,3.6,56,0.00,,---,0.00,VWS V13.01,2013-07-23 08:18:00,
2013-07-23 03:23:00,56.8,41.3,29.87,North,357,3.1,3.1,56,0.00,,---,0.00,VWS V13.01,2013-07-23 08:23:00,
2013-07-23 03:28:00,56.8,41.3,29.87,North,353,3.1,3.6,56,0.00,,---,0.00,VWS V13.01,2013-07-23 08:28:00,
2013-07-23 03:33:00,56.7,40.7,29.87,SSW,213,3.1,3.1,55,0.00,,---,0.00,VWS V13.01,2013-07-23 08:33:00,
2013-07-23 03:38:00,56.7,40.7,29.87,SSW,213,3.6,4.0,55,0.00,,---,0.00,VWS V13.01,2013-07-23 08:38:00,
2013-07-23 03:43:00,56.3,40.4,29.87,SSW,213,3.6,3.6,55,0.00,,---,0.00,VWS V13.01,2013-07-23 08:43:00,
2013-07-23 03:48:00,56.1,40.2,29.87,North,357,3.1,3.1,55,0.00,,---,0.00,VWS V13.01,2013-07-23 08:48:00,
2013-07-23 03:53:00,55.9,39.5,29.87,East,84,3.6,3.6,54,0.00,,---,0.00,VWS V13.01,2013-07-23 08:53:00,
2013-07-23 03:58:00,55.9,39.1,29.87,North,357,3.6,3.6,53,0.00,,---,0.00,VWS V13.01,2013-07-23 08:58:00,
2013-07-23 04:03:00,55.9,38.6,29.87,ESE,117,4.0,4.0,52,0.00,,---,0.00,VWS V13.01,2013-07-23 09:03:00,
2013-07-23 04:08:00,55.9,38.1,29.87,North,5,3.6,3.6,51,0.00,,---,0.00,VWS V13.01,2013-07-23 09:08:00,
2013-07-23 04:13:00,55.9,37.6,29.87,North,357,0.0,3.1,50,0.00,,---,0.00,VWS V13.01,2013-07-23 09:13:00,
2013-07-23 04:18:00,55.9,37.6,29.87,NE,47,2.7,2.7,50,0.00,,---,0.00,VWS V13.01,2013-07-23 09:18:00,
2013-07-23 04:23:00,55.8,37.4,29.87,North,2,0.0,0.0,50,0.00,,---,0.00,VWS V13.01,2013-07-23 09:23:00,
2013-07-23 04:28:00,55.6,37.2,29.90,NNE,16,0.0,0.0,50,0.00,,---,0.00,VWS V13.01,2013-07-23 09:28:00,
2013-07-23 04:33:00,55.4,37.1,29.90,NNE,16,0.0,0.0,50,0.00,,---,0.00,VWS V13.01,2013-07-23 09:33:00,
2013-07-23 04:38:00,55.2,37.4,29.90,NNE,16,0.0,0.0,51,0.00,,---,0.00,VWS V13.01,2013-07-23 09:38:00,
2013-07-23 04:43:00,54.9,37.6,29.90,NNE,16,0.0,0.0,52,0.00,,---,0.00,VWS V13.01,2013-07-23 09:43:00,
2013-07-23 04:48:00,54.7,37.9,29.90,NNE,16,0.0,0.0,53,0.00,,---,0.00,VWS V13.01,2013-07-23 09:48:00,
2013-07-23 04:53:00,54.5,38.2,29.90,NNE,16,3.1,3.1,54,0.00,,---,0.00,VWS V13.01,2013-07-23 09:53:00,
2013-07-23 04:58:00,54.3,38.0,29.90,NNE,16,0.0,0.0,54,0.00,,---,0.00,VWS V13.01,2013-07-23 09:58:00,
2013-07-23 05:03:00,54.1,38.8,29.90,NNE,13,0.0,0.0,56,0.00,,---,0.00,VWS V13.01,2013-07-23 10:03:00,
2013-07-23 05:08:00,54.0,39.1,29.90,North,350,0.0,0.0,57,0.00,,---,0.00,VWS V13.01,2013-07-23 10:08:00,
2013-07-23 05:13:00,54.0,39.5,29.90,North,350,0.0,0.0,58,0.00,,---,0.00,VWS V13.01,2013-07-23 10:13:00,
2013-07-23 05:18:00,53.8,39.4,29.90,North,350,0.0,0.0,58,0.00,,---,0.00,VWS V13.01,2013-07-23 10:18:00,
2013-07-23 05:23:00,53.6,39.6,29.90,NNW,348,0.0,0.0,59,0.00,,---,0.00,VWS V13.01,2013-07-23 10:23:00,
2013-07-23 05:28:00,53.4,39.9,29.90,NNW,348,0.0,0.0,60,0.00,,---,0.00,VWS V13.01,2013-07-23 10:28:00,
2013-07-23 05:33:00,53.2,40.2,29.90,NNW,348,0.0,0.0,61,0.00,,---,0.00,VWS V13.01,2013-07-23 10:33:00,
2013-07-23 05:38:00,53.1,40.4,29.90,NNW,348,0.0,0.0,62,0.00,,---,0.00,VWS V13.01,2013-07-23 10:38:00,
2013-07-23 05:43:00,52.9,40.6,29.90,North,5,3.6,3.6,63,0.00,,---,0.00,VWS V13.01,2013-07-23 10:43:00,
2013-07-23 05:48:00,52.7,40.5,29.90,North,5,2.7,4.0,63,0.00,,---,0.00,VWS V13.01,2013-07-23 10:48:00,
2013-07-23 05:53:00,52.7,40.5,29.90,North,5,4.5,4.5,63,0.00,,---,0.00,VWS V13.01,2013-07-23 10:53:00,
2013-07-23 05:58:00,52.7,40.5,29.90,North,4,3.1,3.1,63,0.00,,---,0.00,VWS V13.01,2013-07-23 10:58:00,
2013-07-23 06:03:00,52.7,40.9,29.90,North,2,3.1,3.6,64,0.00,,---,0.00,VWS V13.01,2013-07-23 11:03:00,
2013-07-23 06:08:00,52.7,40.9,29.90,North,2,3.1,3.6,64,0.00,,---,0.00,VWS V13.01,2013-07-23 11:08:00,
2013-07-23 06:13:00,52.7,40.9,29.93,North,7,4.0,4.5,64,0.00,,---,0.00,VWS V13.01,2013-07-23 11:13:00,
2013-07-23 06:19:00,52.9,40.6,29.93,North,357,4.5,4.5,63,0.00,,---,0.00,VWS V13.01,2013-07-23 11:19:00,
2013-07-23 06:24:00,53.1,40.4,29.93,NNE,14,4.0,4.0,62,0.00,,---,0.00,VWS V13.01,2013-07-23 11:24:00,
2013-07-23 06:29:00,53.2,40.2,29.93,NNE,14,4.7,4.7,61,0.00,,---,0.00,VWS V13.01,2013-07-23 11:29:00,
2013-07-23 06:34:00,53.6,39.2,29.93,NNE,33,4.5,4.5,58,0.00,,---,0.00,VWS V13.01,2013-07-23 11:34:00,
2013-07-23 06:39:00,53.8,38.9,29.93,NE,35,5.6,5.6,57,0.00,,---,0.00,VWS V13.01,2013-07-23 11:39:00,
2013-07-23 06:44:00,54.0,38.6,29.93,North,1,4.0,5.6,56,0.00,,---,0.00,VWS V13.01,2013-07-23 11:44:00,
2013-07-23 06:49:00,54.1,38.3,29.93,North,10,4.5,4.5,55,0.00,,---,0.00,VWS V13.01,2013-07-23 11:49:00,
2013-07-23 06:54:00,54.3,38.0,29.93,NNE,20,4.7,5.1,54,0.00,,---,0.00,VWS V13.01,2013-07-23 11:54:00,
2013-07-23 06:59:00,54.5,37.2,29.93,North,10,4.0,4.5,52,0.00,,---,0.00,VWS V13.01,2013-07-23 11:59:00,
2013-07-23 07:04:00,54.7,37.4,29.93,North,357,3.1,3.1,52,0.00,,---,0.00,VWS V13.01,2013-07-23 12:04:00,
2013-07-23 07:09:00,54.9,37.1,29.93,NNE,25,0.0,0.0,51,0.00,,---,0.00,VWS V13.01,2013-07-23 12:09:00,
2013-07-23 07:14:00,55.0,36.8,29.96,East,101,0.0,0.0,50,0.00,,---,0.00,VWS V13.01,2013-07-23 12:14:00,
2013-07-23 07:19:00,55.2,36.9,29.96,SSE,159,0.0,0.0,50,0.00,,---,0.00,VWS V13.01,2013-07-23 12:19:00,
2013-07-23 07:24:00,55.4,37.1,29.96,ENE,70,0.0,0.0,50,0.00,,---,0.00,VWS V13.01,2013-07-23 12:24:00,
2013-07-23 07:29:00,55.8,37.4,29.96,NNE,30,4.5,4.5,50,0.00,,---,0.00,VWS V13.01,2013-07-23 12:29:00,
2013-07-23 07:34:00,56.1,36.7,29.96,North,11,4.0,4.0,48,0.00,,---,0.00,VWS V13.01,2013-07-23 12:34:00,
2013-07-23 07:39:00,56.3,37.4,29.96,NNE,12,4.7,4.7,49,0.00,,---,0.00,VWS V13.01,2013-07-23 12:39:00,
2013-07-23 07:44:00,56.7,36.7,29.96,North,357,3.1,4.0,47,0.00,,---,0.00,VWS V13.01,2013-07-23 12:44:00,
2013-07-23 07:49:00,56.8,36.8,29.96,North,3,3.1,3.1,47,0.00,,---,0.00,VWS V13.01,2013-07-23 12:49:00,
2013-07-23 07:54:00,57.0,36.5,29.96,North,2,3.6,3.6,46,0.00,,---,0.00,VWS V13.01,2013-07-23 12:54:00,
2013-07-23 07:59:00,57.2,36.6,29.96,ENE,68,2.7,4.7,46,0.00,,---,0.00,VWS V13.01,2013-07-23 12:59:00,
2013-07-23 08:04:00,57.4,36.8,29.96,NNE,23,4.5,4.7,46,0.00,,---,0.00,VWS V13.01,2013-07-23 13:04:00,
2013-07-23 08:09:00,57.6,36.4,29.96,NNE,22,3.6,4.5,45,0.00,,---,0.00,VWS V13.01,2013-07-23 13:09:00,
2013-07-23 08:14:00,57.6,36.4,29.96,ENE,59,0.0,2.7,45,0.00,,---,0.00,VWS V13.01,2013-07-23 13:14:00,
2013-07-23 08:19:00,57.7,36.6,29.96,NNE,16,0.0,0.0,45,0.00,,---,0.00,VWS V13.01,2013-07-23 13:19:00,
2013-07-23 08:24:00,57.9,36.7,29.96,ENE,61,0.0,0.0,45,0.00,,---,0.00,VWS V13.01,2013-07-23 13:24:00,
2013-07-23 08:30:00,58.1,36.9,29.98,North,357,0.0,0.0,45,0.00,,---,0.00,VWS V13.01,2013-07-23 13:30:00,
2013-07-23 08:35:00,58.3,37.0,29.98,East,81,0.0,0.0,45,0.00,,---,0.00,VWS V13.01,2013-07-23 13:35:00,
2013-07-23 08:40:00,58.3,37.0,29.98,NE,56,3.1,3.6,45,0.00,,---,0.00,VWS V13.01,2013-07-23 13:40:00,
2013-07-23 08:45:00,58.5,36.7,29.98,North,353,3.1,4.5,44,0.00,,---,0.00,VWS V13.01,2013-07-23 13:45:00,
2013-07-23 08:50:00,58.5,36.7,29.98,NE,38,4.0,4.0,44,0.00,,---,0.00,VWS V13.01,2013-07-23 13:50:00,
2013-07-23 08:55:00,58.8,36.4,29.98,NE,37,3.6,4.0,43,0.00,,---,0.00,VWS V13.01,2013-07-23 13:55:00,
2013-07-23 09:00:00,58.8,35.8,29.98,North,357,4.7,5.1,42,0.00,,---,0.00,VWS V13.01,2013-07-23 14:00:00,
2013-07-23 09:05:00,58.8,35.8,29.98,NNE,29,4.5,4.5,42,0.00,,---,0.00,VWS V13.01,2013-07-23 14:05:00,
2013-07-23 09:10:00,59.0,36.6,29.98,NNE,27,4.0,4.5,43,0.00,,---,0.00,VWS V13.01,2013-07-23 14:10:00,
2013-07-23 09:15:00,59.2,36.7,29.98,ENE,62,4.0,4.7,43,0.00,,---,0.00,VWS V13.01,2013-07-23 14:15:00,
2013-07-23 09:20:00,59.2,35.5,29.98,NE,41,3.1,4.7,41,0.00,,---,0.00,VWS V13.01,2013-07-23 14:20:00,
2013-07-23 09:25:00,59.2,34.9,29.98,North,10,3.6,4.5,40,0.00,,---,0.00,VWS V13.01,2013-07-23 14:25:00,
2013-07-23 09:30:00,59.2,35.5,30.01,ENE,64,3.1,4.5,41,0.00,,---,0.00,VWS V13.01,2013-07-23 14:30:00,
2013-07-23 09:35:00,59.4,35.1,30.01,North,357,4.7,6.0,40,0.00,,---,0.00,VWS V13.01,2013-07-23 14:35:00,
2013-07-23 09:40:00,59.2,34.3,30.01,NE,55,2.7,5.1,39,0.00,,---,0.00,VWS V13.01,2013-07-23 14:40:00,
2013-07-23 09:45:00,59.4,35.7,30.01,ENE,61,0.0,4.0,41,0.00,,---,0.00,VWS V13.01,2013-07-23 14:45:00,
2013-07-23 09:50:00,59.5,35.2,30.01,North,0,3.6,6.0,40,0.00,,---,0.00,VWS V13.01,2013-07-23 14:50:00,
2013-07-23 09:55:00,59.7,34.7,30.01,NE,35,5.1,5.1,39,0.00,,---,0.00,VWS V13.01,2013-07-23 14:55:00,
2013-07-23 10:00:00,59.5,34.6,30.01,NE,39,3.6,4.7,39,0.00,,---,0.00,VWS V13.01,2013-07-23 15:00:00,
2013-07-23 10:05:00,59.5,34.6,30.01,NE,50,5.6,5.6,39,0.00,,---,0.00,VWS V13.01,2013-07-23 15:05:00,
2013-07-23 10:10:00,59.5,34.6,30.01,East,91,3.1,4.0,39,0.00,,---,0.00,VWS V13.01,2013-07-23 15:10:00,
2013-07-23 10:15:00,59.9,34.9,30.01,ESE,111,4.0,4.0,39,0.00,,---,0.00,VWS V13.01,2013-07-23 15:15:00,
2013-07-23 10:20:00,60.3,35.2,30.01,NE,52,5.1,5.6,39,0.00,,---,0.00,VWS V13.01,2013-07-23 15:20:00,
2013-07-23 10:25:00,60.4,35.4,30.01,NNE,20,3.1,4.7,39,0.00,,---,0.00,VWS V13.01,2013-07-23 15:25:00,
2013-07-23 10:30:00,60.4,34.7,30.04,NNE,25,4.7,4.7,38,0.00,,---,0.00,VWS V13.01,2013-07-23 15:30:00,
2013-07-23 10:35:00,60.3,34.6,30.04,North,9,3.1,3.1,38,0.00,,---,0.00,VWS V13.01,2013-07-23 15:35:00,
2013-07-23 10:41:00,60.4,35.4,30.04,ENE,59,3.1,6.0,39,0.00,,---,0.00,VWS V13.01,2013-07-23 15:41:00,
2013-07-23 10:46:00,60.6,34.9,30.04,NE,41,0.0,0.0,38,0.00,,---,0.00,VWS V13.01,2013-07-23 15:46:00,
2013-07-23 10:51:00,61.3,35.5,30.04,NNE,26,2.7,2.7,38,0.00,,---,0.00,VWS V13.01,2013-07-23 15:51:00,
2013-07-23 10:56:00,61.7,35.9,30.04,NE,43,3.6,3.6,38,0.00,,---,0.00,VWS V13.01,2013-07-23 15:56:00,
2013-07-23 11:01:00,62.2,36.3,30.04,NE,51,3.6,3.6,38,0.00,,---,0.00,VWS V13.01,2013-07-23 16:01:00,
2013-07-23 11:06:00,62.2,35.7,30.04,NNE,27,4.0,4.0,37,0.00,,---,0.00,VWS V13.01,2013-07-23 16:06:00,
2013-07-23 11:11:00,62.2,35.7,30.04,North,10,3.6,3.6,37,0.00,,---,0.00,VWS V13.01,2013-07-23 16:11:00,
2013-07-23 11:16:00,62.1,34.8,30.04,NNE,25,0.0,0.0,36,0.00,,---,0.00,VWS V13.01,2013-07-23 16:16:00,
2013-07-23 11:17:00,61.9,34.7,30.04,NNE,25,2.7,3.1,36,0.00,,---,0.00,VWS V13.01,2013-07-23 16:17:00,
2013-07-23 11:22:00,61.7,35.2,30.04,NNE,12,0.0,2.7,37,0.00,,---,0.00,VWS V13.01,2013-07-23 16:22:00,
2013-07-23 11:27:00,61.7,35.2,30.04,SSE,148,3.1,3.6,37,0.00,,---,0.00,VWS V13.01,2013-07-23 16:27:00,
2013-07-23 11:32:00,61.7,35.2,30.04,NE,56,3.6,3.6,37,0.00,,---,0.00,VWS V13.01,2013-07-23 16:32:00,
2013-07-23 11:37:00,61.9,35.3,30.04,ESE,112,0.0,5.1,37,0.00,,---,0.00,VWS V13.01,2013-07-23 16:37:00,
2013-07-23 11:42:00,62.6,36.0,30.04,ENE,72,0.0,0.0,37,0.00,,---,0.00,VWS V13.01,2013-07-23 16:42:00,
2013-07-23 11:47:00,63.0,35.6,30.04,ESE,108,0.0,0.0,36,0.00,,---,0.00,VWS V13.01,2013-07-23 16:47:00,
2013-07-23 11:52:00,63.5,36.1,30.04,ENE,63,0.0,3.6,36,0.00,,---,0.00,VWS V13.01,2013-07-23 16:52:00,
2013-07-23 11:58:00,63.9,35.7,30.04,NE,46,2.7,2.7,35,0.00,,---,0.00,VWS V13.01,2013-07-23 16:58:00,
2013-07-23 12:03:00,64.0,35.1,30.04,NNE,20,3.1,3.1,34,0.00,,---,0.00,VWS V13.01,2013-07-23 17:03:00,
2013-07-23 12:08:00,64.4,35.5,30.04,East,83,2.7,2.7,34,0.00,,---,0.00,VWS V13.01,2013-07-23 17:08:00,
2013-07-23 12:13:00,64.8,35.8,30.04,West,275,3.6,3.6,34,0.00,,---,0.00,VWS V13.01,2013-07-23 17:13:00,
2013-07-23 12:18:00,65.1,35.3,30.04,SW,219,4.5,4.5,33,0.00,,---,0.00,VWS V13.01,2013-07-23 17:18:00,
2013-07-23 12:23:00,65.1,36.1,30.04,NNW,340,4.5,4.5,34,0.00,,---,0.00,VWS V13.01,2013-07-23 17:23:00,
2013-07-23 12:28:00,64.4,35.5,30.04,North,1,2.7,3.6,34,0.00,,---,0.00,VWS V13.01,2013-07-23 17:28:00,
2013-07-23 12:33:00,63.7,34.8,30.04,ENE,64,0.0,0.0,34,0.00,,---,0.00,VWS V13.01,2013-07-23 17:33:00,
2013-07-23 12:38:00,63.3,35.2,30.04,NNE,17,3.1,4.5,35,0.00,,---,0.00,VWS V13.01,2013-07-23 17:38:00,
2013-07-23 12:43:00,63.5,35.4,30.04,NNE,24,4.5,5.1,35,0.00,,---,0.00,VWS V13.01,2013-07-23 17:43:00,
2013-07-23 12:49:00,64.0,35.9,30.04,North,357,3.1,3.6,35,0.00,,---,0.00,VWS V13.01,2013-07-23 17:49:00,
2013-07-23 12:54:00,64.4,35.5,30.04,SW,220,0.0,3.1,34,0.00,,---,0.00,VWS V13.01,2013-07-23 17:54:00,
2013-07-23 13:00:00,64.8,35.8,30.04,East,99,0.0,0.0,34,0.00,,---,0.00,VWS V13.01,2013-07-23 18:00:00,
2013-07-23 13:05:00,64.4,36.2,30.04,WNW,294,0.0,0.0,35,0.00,,---,0.00,VWS V13.01,2013-07-23 18:05:00,
2013-07-23 13:11:00,64.4,35.5,30.04,North,2,3.1,3.6,34,0.00,,---,0.00,VWS V13.01,2013-07-23 18:11:00,
2013-07-23 13:17:00,64.2,36.0,30.04,NE,44,3.1,3.1,35,0.00,,---,0.00,VWS V13.01,2013-07-23 18:17:00,
2013-07-23 13:22:00,64.4,35.5,30.04,NNE,32,5.6,5.6,34,0.00,,---,0.00,VWS V13.01,2013-07-23 18:22:00,
2013-07-23 13:27:00,64.8,35.8,30.04,NNE,24,4.5,4.5,34,0.00,,---,0.00,VWS V13.01,2013-07-23 18:27:00,
2013-07-23 13:33:00,65.1,36.1,30.04,SE,126,0.0,4.0,34,0.00,,---,0.00,VWS V13.01,2013-07-23 18:33:00,
2013-07-23 13:38:00,65.5,36.4,30.04,North,357,0.0,0.0,34,0.00,,---,0.00,VWS V13.01,2013-07-23 18:38:00,
2013-07-23 13:43:00,66.0,36.9,30.04,ENE,68,2.7,4.0,34,0.00,,---,0.00,VWS V13.01,2013-07-23 18:43:00,
2013-07-23 13:48:00,66.2,36.3,30.04,NNW,345,0.0,0.0,33,0.00,,---,0.00,VWS V13.01,2013-07-23 18:48:00,
2013-07-23 13:53:00,66.2,36.3,30.04,ENE,76,3.1,3.6,33,0.00,,---,0.00,VWS V13.01,2013-07-23 18:53:00,
2013-07-23 13:58:00,65.8,36.0,30.04,ENE,68,0.0,0.0,33,0.00,,---,0.00,VWS V13.01,2013-07-23 18:58:00,
2013-07-23 14:03:00,66.0,36.1,30.04,WSW,250,2.7,2.7,33,0.00,,---,0.00,VWS V13.01,2013-07-23 19:03:00,
2013-07-23 14:08:00,66.2,36.3,30.04,ESE,110,0.0,0.0,33,0.00,,---,0.00,VWS V13.01,2013-07-23 19:08:00,
2013-07-23 14:13:00,66.4,36.4,30.04,SSE,148,0.0,0.0,33,0.00,,---,0.00,VWS V13.01,2013-07-23 19:13:00,
2013-07-23 14:18:00,66.7,36.8,30.04,ENE,65,3.6,3.6,33,0.00,,---,0.00,VWS V13.01,2013-07-23 19:18:00,
2013-07-23 14:24:00,66.6,35.8,30.04,NE,52,0.0,2.7,32,0.00,,---,0.00,VWS V13.01,2013-07-23 19:24:00,
2013-07-23 14:29:00,66.6,36.6,30.04,NW,305,0.0,0.0,33,0.00,,---,0.00,VWS V13.01,2013-07-23 19:29:00,
2013-07-23 14:34:00,66.7,36.8,30.04,East,83,2.7,5.6,33,0.00,,---,0.00,VWS V13.01,2013-07-23 19:34:00,
2013-07-23 14:39:00,66.7,36.0,30.04,NNE,18,4.5,4.5,32,0.00,,---,0.00,VWS V13.01,2013-07-23 19:39:00,
2013-07-23 14:44:00,67.5,37.4,30.04,NE,40,4.0,4.0,33,0.00,,---,0.00,VWS V13.01,2013-07-23 19:44:00,
2013-07-23 14:49:00,67.8,36.1,30.04,North,10,3.1,3.1,31,0.00,,---,0.00,VWS V13.01,2013-07-23 19:49:00,
2013-07-23 14:54:00,68.0,37.1,30.04,ESE,113,4.5,4.5,32,0.00,,---,0.00,VWS V13.01,2013-07-23 19:54:00,
2013-07-23 14:59:00,68.0,37.1,30.04,East,85,0.0,2.7,32,0.00,,---,0.00,VWS V13.01,2013-07-23 19:59:00,
2013-07-23 15:05:00,67.6,37.5,30.04,SE,132,0.0,0.0,33,0.00,,---,0.00,VWS V13.01,2013-07-23 20:05:00,
2013-07-23 15:10:00,67.5,37.4,30.04,North,11,0.0,3.1,33,0.00,,---,0.00,VWS V13.01,2013-07-23 20:10:00,
2013-07-23 15:15:00,67.3,37.2,30.04,NE,49,0.0,0.0,33,0.00,,---,0.00,VWS V13.01,2013-07-23 20:15:00,
2013-07-23 15:20:00,67.6,37.5,30.04,NNE,30,0.0,0.0,33,0.00,,---,0.00,VWS V13.01,2013-07-23 20:20:00,
2013-07-23 15:25:00,68.0,37.1,30.04,NE,44,4.0,5.1,32,0.00,,---,0.00,VWS V13.01,2013-07-23 20:25:00,
2013-07-23 15:30:00,67.5,37.4,30.04,ENE,67,0.0,0.0,33,0.00,,---,0.00,VWS V13.01,2013-07-23 20:30:00,
2013-07-23 15:35:00,66.7,36.8,30.04,NE,45,0.0,0.0,33,0.00,,---,0.00,VWS V13.01,2013-07-23 20:35:00,
2013-07-23 15:41:00,66.4,37.2,30.04,South,185,3.1,4.0,34,0.00,,---,0.00,VWS V13.01,2013-07-23 20:41:00,
2013-07-23 15:46:00,66.2,37.0,30.04,East,90,0.0,0.0,34,0.00,,---,0.00,VWS V13.01,2013-07-23 20:46:00,
2013-07-23 15:51:00,66.2,37.0,30.04,East,92,0.0,3.6,34,0.00,,---,0.00,VWS V13.01,2013-07-23 20:51:00,
2013-07-23 15:56:00,66.0,37.6,30.04,East,100,0.0,0.0,35,0.00,,---,0.00,VWS V13.01,2013-07-23 20:56:00,
2013-07-23 16:01:00,66.2,37.0,30.04,NE,46,0.0,0.0,34,0.00,,---,0.00,VWS V13.01,2013-07-23 21:01:00,
2013-07-23 16:27:00,67.1,37.8,30.04,West,281,0.0,0.0,34,0.00,,---,0.00,VWS V13.01,2013-07-23 21:27:00,
2013-07-23 16:32:00,67.5,38.1,30.04,East,98,0.0,0.0,34,0.00,,---,0.00,VWS V13.01,2013-07-23 21:32:00,
2013-07-23 16:38:00,67.6,39.0,30.04,SE,136,0.0,0.0,35,0.00,,---,0.00,VWS V13.01,2013-07-23 21:38:00,
2013-07-23 16:43:00,67.8,37.7,30.01,ESE,113,0.0,0.0,33,0.00,,---,0.00,VWS V13.01,2013-07-23 21:43:00,
2013-07-23 16:49:00,68.0,37.8,30.01,NNE,16,2.7,2.7,33,0.00,,---,0.00,VWS V13.01,2013-07-23 21:49:00,
2013-07-23 16:54:00,68.0,37.8,30.01,NNW,341,5.1,5.1,33,0.00,,---,0.00,VWS V13.01,2013-07-23 21:54:00,
2013-07-23 16:59:00,67.8,37.7,30.04,NNE,19,0.0,0.0,33,0.00,,---,0.00,VWS V13.01,2013-07-23 21:59:00,
2013-07-23 17:06:00,67.5,37.4,30.04,SE,145,0.0,0.0,33,0.00,,---,0.00,VWS V13.01,2013-07-23 22:06:00,
2013-07-23 17:11:00,67.5,37.4,30.04,SE,145,0.0,0.0,33,0.00,,---,0.00,VWS V13.01,2013-07-23 22:11:00,
2013-07-23 17:16:00,67.3,37.2,30.04,SE,145,0.0,0.0,33,0.00,,---,0.00,VWS V13.01,2013-07-23 22:16:00,
2013-07-23 17:21:00,67.1,37.8,30.04,NE,46,0.0,4.0,34,0.00,,---,0.00,VWS V13.01,2013-07-23 22:21:00,
2013-07-23 17:26:00,66.9,37.7,30.04,NE,46,0.0,0.0,34,0.00,,---,0.00,VWS V13.01,2013-07-23 22:26:00,
2013-07-23 17:31:00,66.9,37.7,30.04,South,175,0.0,0.0,34,0.00,,---,0.00,VWS V13.01,2013-07-23 22:31:00,
2013-07-23 17:36:00,67.1,38.6,30.04,SE,126,0.0,0.0,35,0.00,,---,0.00,VWS V13.01,2013-07-23 22:36:00,
2013-07-23 17:41:00,67.1,37.8,30.04,SE,126,0.0,0.0,34,0.00,,---,0.00,VWS V13.01,2013-07-23 22:41:00,
2013-07-23 17:46:00,66.9,37.7,30.04,SE,126,0.0,0.0,34,0.00,,---,0.00,VWS V13.01,2013-07-23 22:46:00,
2013-07-23 17:51:00,66.7,37.5,30.04,SE,126,0.0,0.0,34,0.00,,---,0.00,VWS V13.01,2013-07-23 22:51:00,
2013-07-23 17:56:00,66.7,37.5,30.04,ESE,116,0.0,0.0,34,0.00,,---,0.00,VWS V13.01,2013-07-23 22:56:00,
2013-07-23 18:01:00,66.4,37.2,30.01,ESE,116,0.0,0.0,34,0.00,,---,0.00,VWS V13.01,2013-07-23 23:01:00,
2013-07-23 18:07:00,66.2,37.0,30.01,ESE,116,0.0,0.0,34,0.00,,---,0.00,VWS V13.01,2013-07-23 23:07:00,
2013-07-23 18:12:00,66.0,37.6,30.01,ENE,78,0.0,0.0,35,0.00,,---,0.00,VWS V13.01,2013-07-23 23:12:00,
2013-07-23 18:17:00,66.0,37.6,30.01,ESE,103,0.0,0.0,35,0.00,,---,0.00,VWS V13.01,2013-07-23 23:17:00,
2013-07-23 18:22:00,65.8,37.5,30.01,ESE,103,0.0,0.0,35,0.00,,---,0.00,VWS V13.01,2013-07-23 23:22:00,
2013-07-23 18:27:00,65.5,37.1,30.04,ESE,103,0.0,0.0,35,0.00,,---,0.00,VWS V13.01,2013-07-23 23:27:00,
2013-07-23 18:32:00,65.1,36.8,30.04,ESE,103,0.0,0.0,35,0.00,,---,0.00,VWS V13.01,2013-07-23 23:32:00,
2013-07-23 18:37:00,64.9,37.4,30.04,ESE,103,0.0,0.0,36,0.00,,---,0.00,VWS V13.01,2013-07-23 23:37:00,
2013-07-23 18:42:00,64.8,37.9,30.04,ESE,103,0.0,0.0,37,0.00,,---,0.00,VWS V13.01,2013-07-23 23:42:00,
2013-07-23 18:47:00,64.6,37.8,30.04,ESE,103,0.0,0.0,37,0.00,,---,0.00,VWS V13.01,2013-07-23 23:47:00,
2013-07-23 18:53:00,64.4,38.3,30.04,ESE,103,0.0,0.0,38,0.00,,---,0.00,VWS V13.01,2013-07-23 23:53:00,
2013-07-23 18:58:00,64.4,38.9,30.04,ESE,103,0.0,0.0,39,0.00,,---,0.00,VWS V13.01,2013-07-23 23:58:00,
2013-07-23 19:04:00,64.6,39.1,30.04,ESE,103,0.0,0.0,39,0.00,,---,0.00,VWS V13.01,2013-07-24 00:04:00,
2013-07-23 19:09:00,64.6,39.1,30.04,ESE,103,0.0,0.0,39,0.00,,---,0.00,VWS V13.01,2013-07-24 00:09:00,
2013-07-23 19:14:00,64.4,39.6,30.04,ESE,103,0.0,0.0,40,0.00,,---,0.00,VWS V13.01,2013-07-24 00:14:00,
2013-07-23 19:19:00,64.2,39.4,30.04,ESE,103,0.0,0.0,40,0.00,,---,0.00,VWS V13.01,2013-07-24 00:19:00,
2013-07-23 19:25:00,64.0,39.2,30.04,ESE,103,0.0,0.0,40,0.00,,---,0.00,VWS V13.01,2013-07-24 00:25:00,
2013-07-23 19:30:00,63.7,39.6,30.04,ESE,103,0.0,0.0,41,0.00,,---,0.00,VWS V13.01,2013-07-24 00:30:00,
2013-07-23 19:35:00,63.5,39.4,30.04,ESE,103,0.0,0.0,41,0.00,,---,0.00,VWS V13.01,2013-07-24 00:35:00,
2013-07-23 19:40:00,63.1,39.1,30.04,ESE,103,0.0,0.0,41,0.00,,---,0.00,VWS V13.01,2013-07-24 00:40:00,
2013-07-23 19:45:00,62.8,40.0,30.04,ESE,103,0.0,0.0,43,0.00,,---,0.00,VWS V13.01,2013-07-24 00:45:00,
2013-07-23 19:50:00,62.4,40.2,30.04,ESE,103,0.0,0.0,44,0.00,,---,0.00,VWS V13.01,2013-07-24 00:50:00,
2013-07-23 19:55:00,62.2,40.1,30.04,ESE,103,0.0,0.0,44,0.00,,---,0.00,VWS V13.01,2013-07-24 00:55:00,
2013-07-23 20:00:00,61.9,40.3,30.04,ESE,103,0.0,0.0,45,0.00,,---,0.00,VWS V13.01,2013-07-24 01:00:00,
2013-07-23 20:06:00,61.7,39.6,30.04,ESE,103,0.0,0.0,44,0.00,,---,0.00,VWS V13.01,2013-07-24 01:06:00,
2013-07-23 20:11:00,61.5,39.4,30.04,ESE,103,0.0,0.0,44,0.00,,---,0.00,VWS V13.01,2013-07-24 01:11:00,
2013-07-23 20:16:00,61.3,39.8,30.04,ESE,102,0.0,0.0,45,0.00,,---,0.00,VWS V13.01,2013-07-24 01:16:00,
2013-07-23 20:22:00,61.3,41.0,30.04,ESE,103,0.0,0.0,47,0.00,,---,0.00,VWS V13.01,2013-07-24 01:22:00,
2013-07-23 20:27:00,61.0,41.2,30.04,ESE,103,0.0,0.0,48,0.00,,---,0.00,VWS V13.01,2013-07-24 01:27:00,
2013-07-23 20:32:00,60.8,41.5,30.04,ESE,103,0.0,0.0,49,0.00,,---,0.00,VWS V13.01,2013-07-24 01:32:00,
2013-07-23 20:37:00,60.4,42.2,30.04,ESE,103,0.0,0.0,51,0.00,,---,0.00,VWS V13.01,2013-07-24 01:37:00,
2013-07-23 20:42:00,60.1,41.9,30.04,ESE,103,0.0,0.0,51,0.00,,---,0.00,VWS V13.01,2013-07-24 01:42:00,
2013-07-23 20:47:00,59.7,42.1,30.04,ESE,103,0.0,0.0,52,0.00,,---,0.00,VWS V13.01,2013-07-24 01:47:00,
2013-07-23 20:52:00,59.4,42.2,30.04,ESE,103,0.0,0.0,53,0.00,,---,0.00,VWS V13.01,2013-07-24 01:52:00,
2013-07-23 20:57:00,59.0,42.9,30.04,ESE,103,0.0,0.0,55,0.00,,---,0.00,VWS V13.01,2013-07-24 01:57:00,
2013-07-23 21:02:00,58.5,42.8,30.04,ESE,103,0.0,0.0,56,0.00,,---,0.00,VWS V13.01,2013-07-24 02:02:00,
2013-07-23 21:08:00,58.1,43.0,30.04,ESE,103,0.0,0.0,57,0.00,,---,0.00,VWS V13.01,2013-07-24 02:08:00,
2013-07-23 21:13:00,57.6,42.9,30.04,ESE,103,0.0,0.0,58,0.00,,---,0.00,VWS V13.01,2013-07-24 02:13:00,
2013-07-23 21:18:00,57.2,43.0,30.04,ESE,103,0.0,0.0,59,0.00,,---,0.00,VWS V13.01,2013-07-24 02:18:00,
2013-07-23 21:24:00,56.8,43.1,30.04,ESE,103,0.0,0.0,60,0.00,,---,0.00,VWS V13.01,2013-07-24 02:24:00,
2013-07-23 21:29:00,56.3,42.6,30.04,ESE,103,0.0,0.0,60,0.00,,---,0.00,VWS V13.01,2013-07-24 02:29:00,
2013-07-23 21:34:00,55.9,43.1,30.04,ESE,103,0.0,0.0,62,0.00,,---,0.00,VWS V13.01,2013-07-24 02:34:00,
2013-07-23 21:39:00,55.8,42.5,30.04,ESE,103,0.0,0.0,61,0.00,,---,0.00,VWS V13.01,2013-07-24 02:39:00,
2013-07-23 21:44:00,55.4,42.6,30.04,ESE,103,0.0,0.0,62,0.00,,---,0.00,VWS V13.01,2013-07-24 02:44:00,
2013-07-23 21:50:00,55.0,42.7,30.04,ESE,103,0.0,0.0,63,0.00,,---,0.00,VWS V13.01,2013-07-24 02:50:00,
2013-07-23 21:55:00,54.9,42.5,30.04,ESE,103,0.0,0.0,63,0.00,,---,0.00,VWS V13.01,2013-07-24 02:55:00,
2013-07-23 22:00:00,54.5,42.2,30.04,ESE,103,0.0,0.0,63,0.00,,---,0.00,VWS V13.01,2013-07-24 03:00:00,
2013-07-23 22:05:00,54.3,42.0,30.04,ESE,103,0.0,0.0,63,0.00,,---,0.00,VWS V13.01,2013-07-24 03:05:00,
2013-07-23 22:11:00,54.1,42.2,30.04,ESE,103,0.0,0.0,64,0.00,,---,0.00,VWS V13.01,2013-07-24 03:11:00,
2013-07-23 22:16:00,54.0,41.7,30.04,ESE,103,0.0,0.0,63,0.00,,---,0.00,VWS V13.01,2013-07-24 03:16:00,
2013-07-23 22:21:00,53.8,41.9,30.04,ESE,103,0.0,0.0,64,0.00,,---,0.00,VWS V13.01,2013-07-24 03:21:00,
2013-07-23 22:26:00,53.6,41.7,30.04,ESE,103,0.0,0.0,64,0.00,,---,0.00,VWS V13.01,2013-07-24 03:26:00,
2013-07-23 22:31:00,53.4,41.6,30.04,ESE,103,0.0,0.0,64,0.00,,---,0.00,VWS V13.01,2013-07-24 03:31:00,
2013-07-23 22:36:00,53.2,41.8,30.04,ESE,103,0.0,0.0,65,0.00,,---,0.00,VWS V13.01,2013-07-24 03:36:00,
2013-07-23 22:41:00,53.1,42.0,30.04,ESE,103,0.0,0.0,66,0.00,,---,0.00,VWS V13.01,2013-07-24 03:41:00,
2013-07-23 22:46:00,53.1,42.0,30.04,ESE,103,0.0,0.0,66,0.00,,---,0.00,VWS V13.01,2013-07-24 03:46:00,
2013-07-23 22:51:00,52.9,41.8,30.04,ESE,103,0.0,0.0,66,0.00,,---,0.00,VWS V13.01,2013-07-24 03:51:00,
2013-07-23 22:57:00,52.7,41.7,30.04,ESE,103,0.0,0.0,66,0.00,,---,0.00,VWS V13.01,2013-07-24 03:57:00,
2013-07-23 23:01:00,52.5,41.5,30.04,ESE,103,0.0,0.0,66,0.00,,---,0.00,VWS V13.01,2013-07-24 04:01:00,
2013-07-23 23:07:00,52.3,41.3,30.04,ESE,103,0.0,0.0,66,0.00,,---,0.00,VWS V13.01,2013-07-24 04:07:00,
2013-07-23 23:12:00,52.2,41.2,30.04,ESE,103,0.0,0.0,66,0.00,,---,0.00,VWS V13.01,2013-07-24 04:12:00,
2013-07-23 23:17:00,52.0,41.0,30.04,ESE,103,0.0,0.0,66,0.00,,---,0.00,VWS V13.01,2013-07-24 04:17:00,
2013-07-23 23:22:00,51.8,40.8,30.04,ESE,103,0.0,0.0,66,0.00,,---,0.00,VWS V13.01,2013-07-24 04:22:00,
2013-07-23 23:27:00,51.6,41.0,30.04,ESE,103,0.0,0.0,67,0.00,,---,0.00,VWS V13.01,2013-07-24 04:27:00,
2013-07-23 23:32:00,51.6,41.0,30.04,ESE,103,0.0,0.0,67,0.00,,---,0.00,VWS V13.01,2013-07-24 04:32:00,
2013-07-23 23:37:00,51.4,41.2,30.04,ESE,103,0.0,0.0,68,0.00,,---,0.00,VWS V13.01,2013-07-24 04:37:00,
2013-07-23 23:42:00,51.3,41.1,30.04,ESE,103,0.0,0.0,68,0.00,,---,0.00,VWS V13.01,2013-07-24 04:42:00,
2013-07-23 23:47:00,51.1,40.9,30.04,ESE,103,0.0,0.0,68,0.00,,---,0.00,VWS V13.01,2013-07-24 04:47:00,
2013-07-23 23:52:00,51.1,41.3,30.04,ESE,103,0.0,0.0,69,0.00,,---,0.00,VWS V13.01,2013-07-24 04:52:00,
2013-07-23 23:57:00,50.9,41.1,30.04,ESE,103,0.0,0.0,69,0.00,,---,0.00,VWS V13.01,2013-07-24 04:57:00,